Erwin, NC

7:01 AM EST on January 24, 2018 (GMT -0500)
Harnett County

Weather History for KHRJ - March, 2014

Change the Weather History Date:

Thursday, March 27, 2014

  Actual Average Record
Temperature  
Mean Temperature 44 °F -  
Max Temperature 61 °F 66 °F 82 °F (2004)
Min Temperature 26 °F 42 °F 26 °F (2014)
Degree Days  
Heating Degree Days 22    
Moisture  
Dew Point 22 °F    
Average Humidity 51    
Maximum Humidity 95    
Minimum Humidity 16    
Precipitation  
Precipitation 0.00 in - - ()
Sea Level Pressure  
Sea Level Pressure 30.39 in    
Wind  
Wind Speed 3 mph (SSE)    
Max Wind Speed 15 mph    
Max Gust Speed 18 mph    
Visibility 10 miles    
Events      
Averages and records for this station are not official NWS values.
T = Trace of Precipitation, MM = Missing Value Source: NWS Daily Summary

Daily Weather History Graph

Daily Weather History Graph

Search for Another Location

Airport or City:

Trip Planner

Search our weather history database for the weather conditions in past years. The results will help you decide how hot, cold, wet, or windy it might be!

Date:

Astronomy

Mar. 27, 2014 Rise Set
Actual Time 7:08 AM EDT 7:32 PM EDT
Civil Twilight 6:43 AM EDT 7:57 PM EDT
Nautical Twilight 6:13 AM EDT 8:27 PM EDT
Astronomical Twilight 5:42 AM EDT 8:58 PM EDT
Moon 4:51 AM EDT (3/27) 4:24 PM EDT (3/27)
Length of Visible Light 13h 14m
Length of Day
12h 23m
Waning Crescent, 13% of the Moon is Illuminated
Mar 27
Waning Crescent
Mar 30
New
Apr 7
First Quarter
Apr 15
Full
Apr 22
Last Quarter

Hourly Weather History & Observations

Time (EDT) Temp. Windchill Dew Point Humidity Pressure Visibility Wind Dir Wind Speed Gust Speed Precip Events Conditions
12:15 AM 30.6 °F - 24.8 °F 79% 30.35 in 10.0 mi Calm Calm - N/A   Clear
12:35 AM 30.6 °F - 23.9 °F 76% 30.35 in 10.0 mi Calm Calm - N/A   Clear
12:55 AM 30.0 °F 26.5 °F 23.9 °F 78% 30.35 in 10.0 mi North 3.5 mph - N/A   Clear
1:15 AM 29.5 °F - 24.4 °F 81% 30.36 in 10.0 mi Calm Calm - N/A   Clear
1:35 AM 29.3 °F - 24.3 °F 81% 30.35 in 10.0 mi Calm Calm - N/A   Clear
2:15 AM 28.9 °F - 23.9 °F 81% 30.37 in 10.0 mi Calm Calm - N/A   Clear
2:35 AM 28.8 °F - 24.1 °F 83% 30.37 in 10.0 mi Calm Calm - N/A   Clear
2:55 AM 28.8 °F - 23.9 °F 82% 30.36 in 10.0 mi Calm Calm - N/A   Clear
3:15 AM 28.9 °F - 23.7 °F 81% 30.38 in 10.0 mi Calm Calm - N/A   Clear
3:35 AM 27.5 °F - 23.9 °F 86% 30.38 in 10.0 mi Calm Calm - N/A   Clear
3:55 AM 28.2 °F - 24.6 °F 86% 30.37 in 10.0 mi Calm Calm - N/A   Clear
4:15 AM 27.1 °F - 23.4 °F 86% 30.39 in 10.0 mi Calm Calm - N/A   Clear
4:35 AM 27.3 °F 23.4 °F 23.9 °F 87% 30.39 in 10.0 mi NW 3.5 mph - N/A   Clear
4:55 AM 27.0 °F - 25.7 °F 95% 30.40 in 10.0 mi Calm Calm - N/A   Clear
5:15 AM 26.8 °F 22.8 °F 25.3 °F 94% 30.40 in 10.0 mi North 3.5 mph - N/A   Clear
5:35 AM 26.6 °F - 24.8 °F 93% 30.40 in 10.0 mi Calm Calm - N/A   Clear
5:55 AM 27.0 °F - 25.3 °F 94% 30.41 in 10.0 mi Calm Calm - N/A   Clear
6:15 AM 26.6 °F - 24.8 °F 93% 30.41 in 10.0 mi Calm Calm - N/A   Clear
6:35 AM 26.6 °F - 24.8 °F 93% 30.41 in 10.0 mi Calm Calm - N/A   Clear
6:55 AM 27.1 °F - 23.9 °F 88% 30.42 in 10.0 mi Calm Calm - N/A   Clear
7:15 AM 26.8 °F - 23.4 °F 87% 30.43 in 10.0 mi Calm Calm - N/A   Clear
7:35 AM 27.5 °F - 22.8 °F 83% 30.43 in 10.0 mi Calm Calm - N/A   Clear
7:55 AM 28.4 °F - 24.1 °F 84% 30.43 in 10.0 mi Calm Calm - N/A   Clear
8:15 AM 29.7 °F - 24.8 °F 82% 30.45 in 10.0 mi Calm Calm - N/A   Clear
8:35 AM 33.8 °F - 22.8 °F 64% 30.45 in 10.0 mi Calm Calm - N/A   Clear
8:55 AM 36.9 °F - 21.9 °F 55% 30.46 in 10.0 mi Calm Calm - N/A   Clear
9:15 AM 40.1 °F 34.7 °F 17.6 °F 40% 30.47 in 10.0 mi East 8.1 mph - N/A   Clear
9:35 AM 41.4 °F 37.6 °F 16.9 °F 37% 30.48 in 10.0 mi East 5.8 mph - N/A   Clear
9:55 AM 42.3 °F 37.9 °F 14.7 °F 33% 30.48 in 10.0 mi ESE 6.9 mph - N/A   Clear
10:15 AM 43.3 °F 39.9 °F 14.2 °F 31% 30.48 in 10.0 mi ESE 5.8 mph - N/A   Clear
10:35 AM 44.6 °F 40.7 °F 13.1 °F 28% 30.48 in 10.0 mi East 6.9 mph - N/A   Clear
10:55 AM 46.4 °F 42.4 °F 11.7 °F 25% 30.48 in 10.0 mi SSE 8.1 mph - N/A   Clear
11:15 AM 47.7 °F - 13.5 °F 25% 30.48 in 10.0 mi SE 5.8 mph - N/A   Clear
11:35 AM 48.2 °F - 14.2 °F 26% 30.47 in 10.0 mi SSE 6.9 mph - N/A   Clear
11:55 AM 48.7 °F - 13.8 °F 25% 30.47 in 10.0 mi SE 9.2 mph - N/A   Clear
12:15 PM 49.8 °F - 13.6 °F 24% 30.47 in 10.0 mi ESE 9.2 mph - N/A   Clear
12:35 PM 50.7 °F - 14.4 °F 24% 30.47 in 10.0 mi South 8.1 mph - N/A   Clear
12:55 PM 51.8 °F - 14.9 °F 23% 30.46 in 10.0 mi South 8.1 mph - N/A   Clear
1:15 PM 53.4 °F - 15.6 °F 22% 30.45 in 10.0 mi Calm Calm - N/A   Clear
1:35 PM 54.3 °F - 13.8 °F 20% 30.44 in 10.0 mi SW 8.1 mph - N/A   Clear
1:55 PM 55.9 °F - 16.0 °F 21% 30.43 in 10.0 mi SSE 10.4 mph - N/A   Clear
2:15 PM 56.3 °F - 15.1 °F 20% 30.42 in 10.0 mi South 10.4 mph - N/A   Clear
2:35 PM 57.7 °F - 16.7 °F 20% 30.40 in 10.0 mi South 9.2 mph - N/A   Clear
2:55 PM 57.7 °F - 15.4 °F 19% 30.39 in 10.0 mi South 8.1 mph 18.4 mph N/A   Clear
3:15 PM 58.8 °F - 15.1 °F 18% 30.38 in 10.0 mi SSW 8.1 mph 18.4 mph N/A   Clear
3:35 PM 59.0 °F - 14.2 °F 17% 30.38 in 10.0 mi South 11.5 mph - N/A   Clear
3:55 PM 59.0 °F - 12.0 °F 16% 30.37 in 10.0 mi South 9.2 mph - N/A   Clear
4:15 PM 60.1 °F - 14.7 °F 17% 30.36 in 10.0 mi SSE 5.8 mph - N/A   Clear
4:35 PM 60.3 °F - 14.5 °F 17% 30.35 in 10.0 mi SSE 11.5 mph - N/A   Clear
4:55 PM 61.0 °F - 16.0 °F 17% 30.35 in 10.0 mi SSW 11.5 mph - N/A   Clear
5:15 PM 60.8 °F - 17.1 °F 18% 30.35 in 10.0 mi South 11.5 mph 15.0 mph N/A   Clear
5:35 PM 60.4 °F - 16.9 °F 18% 30.35 in 10.0 mi SSW 13.8 mph - N/A   Clear
5:55 PM 60.6 °F - 19.4 °F 20% 30.35 in 10.0 mi South 10.4 mph - N/A   Clear
6:15 PM 60.3 °F - 20.8 °F 22% 30.35 in 10.0 mi South 10.4 mph - N/A   Clear
6:35 PM 59.4 °F - 21.6 °F 23% 30.34 in 10.0 mi South 15.0 mph 18.4 mph N/A   Clear
6:55 PM 58.5 °F - 21.7 °F 24% 30.34 in 10.0 mi South 12.7 mph - N/A   Clear
7:15 PM 57.0 °F - 21.9 °F 26% 30.33 in 10.0 mi South 9.2 mph 16.1 mph N/A   Clear
7:35 PM 54.9 °F - 23.0 °F 29% 30.33 in 10.0 mi South 8.1 mph - N/A   Clear
8:15 PM 53.6 °F - 22.3 °F 30% 30.32 in 10.0 mi SE 5.8 mph - N/A   Clear
8:55 PM 52.7 °F - 26.4 °F 36% 30.31 in 10.0 mi SSE 9.2 mph - N/A   Clear
9:15 PM 51.6 °F - 30.6 °F 45% 30.32 in 10.0 mi South 9.2 mph - N/A   Clear
9:35 PM 51.4 °F - 33.3 °F 50% 30.32 in 10.0 mi South 8.1 mph - N/A   Clear
9:55 PM 51.8 °F - 35.1 °F 53% 30.34 in 10.0 mi South 8.1 mph - N/A   Clear
10:15 PM 50.9 °F - 35.8 °F 56% 30.35 in 10.0 mi South 6.9 mph - N/A   Clear
10:35 PM 50.4 °F - 36.5 °F 59% 30.35 in 10.0 mi SSE 6.9 mph - N/A   Clear
10:55 PM 48.7 °F - 36.5 °F 63% 30.35 in 10.0 mi SE 3.5 mph - N/A   Clear
11:15 PM 48.9 °F - 36.5 °F 62% 30.34 in 10.0 mi SSE 4.6 mph - N/A   Clear
11:35 PM 48.2 °F - 36.5 °F 64% 30.33 in 10.0 mi SSE 4.6 mph - N/A   Clear
11:55 PM 48.2 °F - 36.5 °F 64% 30.32 in 10.0 mi SSE 5.8 mph - N/A   Clear